FLOCK 3R-5 (43726 NORAD) Tracking and Keplerian Element Data

This shows tracking and keplerian element data for the satellite.

Feedback or suggestion? Click here.




ElementValue
Catalog43726
NameFLOCK 3R-5
Epoch Orbit162
Epoch Day343.86620118
Epoch Year2018
RAAN48.8698
Inclination97.4845
Eccentricity0.001695
Argument of Perigee288.1605
Mean Anonmoly161.444
Mean Motion15.26042253
Decay Rate2.291E-05
L11 43726U 18096H 18343.86620118 .00002291 00000-0 91595-4 0 9994
L22 43726 97.4845 48.8698 0016950 288.1605 161.4440 15.26042253 1624

Live tracking and technical data element details for FLOCK 3R-5 (NORAD 43726). FLOCK 3R-5 can be tracked NOW for your location showing map with azimuth and elevation plus other details from your city location.

Track the satellite on the map from your city or location and see movement details for azimuth, elevation, latitude, longitude, range, height, and movement on the map or in text.







IsCatalogInMostPopularTable: catalog: 43726, numindb: 5
Update: records affected: 1



GetName: 43726 FLOCK 3R-5

Hit Count: updated at: Tue, 11 Dec 2018 02:23:22 GMT